| time (UTC) | temp C | wind direction | speed KPH | gust KPH | rain 1hr cm | rain 24hr cm | rain mn cm | humidity % | barometer mb |
| 20260508064549 | 11 | 71 | 3.2 | 9.7 | 0.00 | 0.00 | 0.00 | 87 | 1012.3 |
| 20260508063057 | 10 | 42 | 3.2 | 8.0 | 0.00 | 0.00 | 0.00 | 86 | 1012.2 |
| 20260508061546 | 8 | 0 | 0.0 | 1.6 | 0.00 | 0.00 | 0.00 | 93 | 1012.1 |
| 20260508060042 | 7 | 0 | 0.0 | 0.0 | 0.00 | 0.00 | 0.00 | 94 | 1012.1 |
| 20260508054548 | 6 | 0 | 0.0 | 1.6 | 0.00 | 0.00 | 0.00 | 94 | 1012.0 |
| 20260508053104 | 6 | 0 | 0.0 | 1.6 | 0.00 | 0.00 | 0.00 | 94 | 1011.8 |
| 20260508051550 | 6 | 146 | 0.0 | 1.6 | 0.00 | 0.00 | 0.00 | 94 | 1011.7 |
| 20260508050048 | 6 | 0 | 0.0 | 0.0 | 0.00 | 0.00 | 0.00 | 94 | 1011.7 |
| 20260508044547 | 6 | 0 | 0.0 | 0.0 | 0.00 | 0.00 | 0.00 | 94 | 1011.5 |
| 20260508043053 | 6 | 142 | 0.0 | 1.6 | 0.00 | 0.00 | 0.00 | 94 | 1011.4 |
| 20260508041551 | 7 | 0 | 0.0 | 0.0 | 0.00 | 0.00 | 0.00 | 94 | 1011.3 |
| 20260508040044 | 7 | 0 | 0.0 | 0.0 | 0.00 | 0.00 | 0.00 | 93 | 1011.2 |
| 20260508034542 | 7 | 0 | 0.0 | 0.0 | 0.00 | 0.00 | 0.00 | 93 | 1011.1 |
| 20260508033047 | 7 | 0 | 0.0 | 1.6 | 0.00 | 0.00 | 0.00 | 93 | 1011.2 |
| 20260508031549 | 7 | 0 | 0.0 | 0.0 | 0.00 | 0.00 | 0.00 | 93 | 1011.2 |
| 20260508030047 | 8 | 0 | 0.0 | 0.0 | 0.00 | 0.00 | 0.00 | 92 | 1011.3 |
| 20260508024544 | 8 | 0 | 0.0 | 0.0 | 0.00 | 0.00 | 0.00 | 92 | 1011.4 |
| 20260508023043 | 8 | 0 | 0.0 | 0.0 | 0.00 | 0.00 | 0.00 | 92 | 1011.4 |
| 20260508021544 | 8 | 0 | 0.0 | 0.0 | 0.00 | 0.00 | 0.00 | 92 | 1011.5 |
| 20260508020046 | 8 | 0 | 0.0 | 0.0 | 0.00 | 0.00 | 0.00 | 91 | 1011.5 |
| 20260508014540 | 8 | 0 | 0.0 | 0.0 | 0.00 | 0.00 | 0.00 | 91 | 1011.5 |
| 20260508013053 | 9 | 0 | 0.0 | 0.0 | 0.00 | 0.00 | 0.00 | 91 | 1011.7 |
| 20260508011544 | 9 | 0 | 0.0 | 0.0 | 0.00 | 0.00 | 0.00 | 91 | 1011.9 |
| 20260508010038 | 9 | 0 | 0.0 | 1.6 | 0.00 | 0.00 | 0.00 | 91 | 1011.9 |
| 20260508004537 | 9 | 0 | 0.0 | 1.6 | 0.00 | 0.00 | 0.00 | 91 | 1012.0 |
| 20260508003036 | 9 | 0 | 0.0 | 0.0 | 0.00 | 0.00 | 0.00 | 91 | 1012.2 |
| 20260508001606 | 9 | 0 | 0.0 | 1.6 | 0.00 | 0.00 | 0.00 | 90 | 1012.2 |
| 20260508000043 | 9 | 0 | 0.0 | 1.6 | 0.00 | 0.00 | 0.00 | 91 | 1012.1 |
| 20260507234549 | 9 | 0 | 0.0 | 1.6 | 0.00 | 0.00 | 0.00 | 91 | 1012.5 |
| 20260507233047 | 9 | 0 | 0.0 | 1.6 | 0.00 | 0.00 | 0.00 | 90 | 1012.6 |
| 20260507231549 | 10 | 0 | 0.0 | 1.6 | 0.00 | 0.00 | 0.00 | 90 | 1012.7 |
| 20260507230048 | 10 | 0 | 0.0 | 0.0 | 0.00 | 0.00 | 0.00 | 89 | 1012.7 |
| 20260507224554 | 10 | 0 | 0.0 | 0.0 | 0.00 | 0.00 | 0.00 | 89 | 1012.8 |
| 20260507223048 | 10 | 0 | 0.0 | 1.6 | 0.00 | 0.00 | 0.00 | 89 | 1012.8 |
| 20260507221552 | 11 | 0 | 0.0 | 0.0 | 0.00 | 0.00 | 0.00 | 88 | 1012.8 |
| 20260507220052 | 11 | 0 | 0.0 | 1.6 | 0.00 | 0.00 | 0.00 | 88 | 1013.0 |
| 20260507214551 | 11 | 0 | 0.0 | 0.0 | 0.00 | 0.00 | 0.00 | 87 | 1012.9 |
| 20260507213048 | 11 | 0 | 0.0 | 1.6 | 0.00 | 0.00 | 0.00 | 87 | 1012.9 |
| 20260507211547 | 11 | 0 | 0.0 | 0.0 | 0.00 | 0.00 | 0.00 | 86 | 1013.0 |
| 20260507210051 | 11 | 196 | 0.0 | 4.8 | 0.00 | 0.00 | 0.00 | 85 | 1012.8 |
| 20260507204553 | 12 | 0 | 0.0 | 3.2 | 0.00 | 0.00 | 0.00 | 86 | 1012.7 |
| 20260507203045 | 12 | 0 | 0.0 | 1.6 | 0.00 | 0.00 | 0.00 | 86 | 1012.7 |
| 20260507201542 | 12 | 0 | 0.0 | 4.8 | 0.00 | 0.00 | 0.00 | 85 | 1012.4 |
| 20260507200049 | 13 | 0 | 0.0 | 0.0 | 0.00 | 0.00 | 0.00 | 84 | 1012.2 |
| 20260507194544 | 13 | 0 | 0.0 | 0.0 | 0.00 | 0.00 | 0.00 | 83 | 1012.0 |
| 20260507193051 | 13 | 0 | 0.0 | 1.6 | 0.00 | 0.00 | 0.00 | 83 | 1011.8 |
| 20260507191550 | 13 | 0 | 1.6 | 6.4 | 0.00 | 0.00 | 0.00 | 82 | 1011.5 |
| 20260507190040 | 14 | 208 | 1.6 | 11.3 | 0.00 | 0.00 | 0.00 | 80 | 1011.3 |
| 20260507184550 | 15 | 149 | 3.2 | 9.7 | 0.00 | 0.00 | 0.00 | 79 | 1011.2 |
| 20260507183051 | 15 | 185 | 1.6 | 8.0 | 0.00 | 0.00 | 0.00 | 77 | 1010.9 |
| 20260507181559 | 15 | 222 | 3.2 | 9.7 | 0.00 | 0.00 | 0.00 | 76 | 1010.9 |
| 20260507180043 | 16 | 180 | 3.2 | 9.7 | 0.00 | 0.00 | 0.00 | 74 | 1010.7 |
| 20260507174547 | 16 | 275 | 3.2 | 12.9 | 0.00 | 0.00 | 0.00 | 73 | 1010.6 |
| 20260507173048 | 17 | 239 | 6.4 | 14.5 | 0.00 | 0.00 | 0.00 | 70 | 1010.4 |
| 20260507171553 | 17 | 234 | 3.2 | 12.9 | 0.00 | 0.00 | 0.00 | 69 | 1010.2 |
| 20260507170050 | 17 | 220 | 3.2 | 19.3 | 0.00 | 0.00 | 0.00 | 69 | 1010.2 |
| 20260507164542 | 17 | 237 | 4.8 | 16.1 | 0.00 | 0.00 | 0.00 | 67 | 1010.2 |
| 20260507163043 | 17 | 144 | 8.0 | 16.1 | 0.00 | 0.00 | 0.00 | 66 | 1010.2 |
| 20260507161541 | 17 | 212 | 6.4 | 25.7 | 0.00 | 0.00 | 0.00 | 66 | 1010.4 |
| 20260507160040 | 17 | 218 | 6.4 | 20.9 | 0.00 | 0.00 | 0.00 | 64 | 1010.3 |
| 20260507154549 | 18 | 212 | 4.8 | 16.1 | 0.00 | 0.00 | 0.00 | 63 | 1010.3 |
| 20260507153052 | 18 | 174 | 4.8 | 12.9 | 0.00 | 0.00 | 0.00 | 61 | 1010.2 |
| 20260507151543 | 18 | 163 | 6.4 | 12.9 | 0.00 | 0.00 | 0.00 | 62 | 1010.2 |
| 20260507150043 | 18 | 202 | 6.4 | 17.7 | 0.00 | 0.00 | 0.00 | 60 | 1010.4 |
| 20260507144548 | 18 | 208 | 8.0 | 17.7 | 0.00 | 0.00 | 0.00 | 61 | 1010.3 |
| 20260507143048 | 18 | 138 | 6.4 | 20.9 | 0.00 | 0.00 | 0.00 | 60 | 1010.4 |
| 20260507141544 | 18 | 190 | 4.8 | 14.5 | 0.00 | 0.00 | 0.00 | 60 | 1010.6 |
| 20260507140049 | 18 | 248 | 4.8 | 17.7 | 0.00 | 0.00 | 0.00 | 60 | 1010.8 |
| 20260507134544 | 18 | 260 | 8.0 | 19.3 | 0.00 | 0.00 | 0.00 | 61 | 1011.2 |
| 20260507133041 | 18 | 239 | 8.0 | 19.3 | 0.00 | 0.00 | 0.00 | 63 | 1011.1 |
| 20260507131553 | 17 | 222 | 4.8 | 14.5 | 0.00 | 0.00 | 0.00 | 66 | 1011.4 |
| 20260507130043 | 17 | 155 | 11.3 | 22.5 | 0.00 | 0.00 | 0.00 | 68 | 1011.5 |
| 20260507124552 | 17 | 212 | 9.7 | 19.3 | 0.00 | 0.00 | 0.00 | 67 | 1011.4 |
| 20260507123043 | 18 | 144 | 6.4 | 22.5 | 0.00 | 0.00 | 0.00 | 65 | 1011.7 |
| 20260507121543 | 19 | 168 | 8.0 | 19.3 | 0.00 | 0.00 | 0.00 | 62 | 1011.4 |
| 20260507120043 | 18 | 181 | 8.0 | 19.3 | 0.00 | 0.00 | 0.00 | 63 | 1011.5 |
| 20260507114543 | 19 | 208 | 6.4 | 17.7 | 0.00 | 0.00 | 0.00 | 60 | 1011.4 |
| 20260507113038 | 18 | 204 | 4.8 | 14.5 | 0.00 | 0.00 | 0.00 | 61 | 1011.6 |
| 20260507111544 | 18 | 98 | 4.8 | 16.1 | 0.00 | 0.00 | 0.00 | 61 | 1011.8 |
| 20260507110043 | 18 | 157 | 6.4 | 17.7 | 0.00 | 0.00 | 0.00 | 61 | 1011.9 |
| 20260507104549 | 18 | 155 | 8.0 | 19.3 | 0.00 | 0.00 | 0.00 | 61 | 1012.0 |
| 20260507103047 | 18 | 128 | 4.8 | 16.1 | 0.00 | 0.00 | 0.00 | 62 | 1012.0 |
| 20260507101546 | 18 | 172 | 4.8 | 11.3 | 0.00 | 0.00 | 0.00 | 62 | 1012.1 |
| 20260507100044 | 17 | 229 | 3.2 | 11.3 | 0.00 | 0.00 | 0.00 | 63 | 1012.2 |
| 20260507094544 | 17 | 174 | 3.2 | 17.7 | 0.00 | 0.00 | 0.00 | 63 | 1012.6 |
| 20260507093049 | 17 | 206 | 1.6 | 8.0 | 0.00 | 0.00 | 0.00 | 66 | 1012.5 |
| 20260507091549 | 17 | 201 | 4.8 | 8.0 | 0.00 | 0.00 | 0.00 | 67 | 1012.5 |
| 20260507090047 | 16 | 0 | 3.2 | 9.7 | 0.00 | 0.00 | 0.00 | 69 | 1012.6 |
| 20260507084546 | 16 | 205 | 3.2 | 11.3 | 0.00 | 0.00 | 0.00 | 71 | 1012.5 |
| 20260507083044 | 16 | 265 | 1.6 | 12.9 | 0.00 | 0.00 | 0.00 | 71 | 1012.6 |
| 20260507081548 | 16 | 172 | 3.2 | 9.7 | 0.00 | 0.00 | 0.00 | 73 | 1012.8 |
| 20260507080051 | 15 | 185 | 3.2 | 14.5 | 0.00 | 0.00 | 0.00 | 75 | 1012.7 |
| 20260507074557 | 15 | 174 | 3.2 | 9.7 | 0.00 | 0.00 | 0.00 | 76 | 1012.9 |
| 20260507073043 | 14 | 0 | 0.0 | 0.0 | 0.00 | 0.00 | 0.00 | 75 | 1013.0 |
| 20260507071543 | 13 | 0 | 0.0 | 0.0 | 0.00 | 0.00 | 0.00 | 78 | 1012.8 |
| 20260507070043 | 12 | 0 | 0.0 | 0.0 | 0.00 | 0.00 | 0.00 | 82 | 1012.7 |